owner,sensor,date,latitude,longitude,vertical_datum,wind_speed,wind_to_direction,wind_speed_of_gust,qcFlag 
TCOON,ioos:station:TCOON:146:1,2019-12-01T00:30:00Z,28.1324,-97.0345,0.0,4.7,146.0,5.9,'11111222,11111222,11111222' 
TCOON,ioos:station:TCOON:146:1,2019-12-01T01:30:00Z,28.1324,-97.0345,0.0,4.8,148.0,6.0,'11111222,11111222,11111222' 
TCOON,ioos:station:TCOON:146:1,2019-12-01T02:30:00Z,28.1324,-97.0345,0.0,4.0,150.0,5.0,'11111222,11111222,11111222' 
TCOON,ioos:station:TCOON:146:1,2019-12-01T03:30:00Z,28.1324,-97.0345,0.0,3.4,153.0,4.4,'11111222,11111222,11111222' 
TCOON,ioos:station:TCOON:146:1,2019-12-01T04:30:00Z,28.1324,-97.0345,0.0,1.8,173.0,2.5,'11111222,11111222,11111222' 
TCOON,ioos:station:TCOON:146:1,2019-12-01T05:30:00Z,28.1324,-97.0345,0.0,0.4,222.0,1.0,'11111222,11111222,11111222' 
TCOON,ioos:station:TCOON:146:1,2019-12-01T06:30:00Z,28.1324,-97.0345,0.0,0.8,145.0,0.9,'11111222,11111222,11111222' 
TCOON,ioos:station:TCOON:146:1,2019-12-01T07:30:00Z,28.1324,-97.0345,0.0,1.8,342.0,2.4,'11111222,11111222,11111222' 
TCOON,ioos:station:TCOON:146:1,2019-12-01T08:30:00Z,28.1324,-97.0345,0.0,5.8,348.0,7.3,'11111222,11111222,11111222' 
TCOON,ioos:station:TCOON:146:1,2019-12-01T09:30:00Z,28.1324,-97.0345,0.0,5.5,355.0,7.0,'11111222,11111222,11111222' 
TCOON,ioos:station:TCOON:146:1,2019-12-01T10:30:00Z,28.1324,-97.0345,0.0,5.1,352.0,6.6,'11111222,11111222,11111222' 
TCOON,ioos:station:TCOON:146:1,2019-12-01T11:30:00Z,28.1324,-97.0345,0.0,5.5,349.0,6.6,'11111222,11111222,11111222' 
TCOON,ioos:station:TCOON:146:1,2019-12-01T12:30:00Z,28.1324,-97.0345,0.0,5.3,339.0,6.4,'11111222,11111222,11111222' 
TCOON,ioos:station:TCOON:146:1,2019-12-01T13:30:00Z,28.1324,-97.0345,0.0,4.5,346.0,5.8,'11111222,11111222,11111222' 
TCOON,ioos:station:TCOON:146:1,2019-12-01T14:30:00Z,28.1324,-97.0345,0.0,5.2,333.0,6.6,'11111222,11111222,11111222' 
TCOON,ioos:station:TCOON:146:1,2019-12-01T15:30:00Z,28.1324,-97.0345,0.0,5.3,332.0,6.5,'11111222,11111222,11111222' 
TCOON,ioos:station:TCOON:146:1,2019-12-01T16:30:00Z,28.1324,-97.0345,0.0,5.3,328.0,6.5,'11111222,11111222,11111222' 
TCOON,ioos:station:TCOON:146:1,2019-12-01T17:30:00Z,28.1324,-97.0345,0.0,4.3,337.0,5.7,'11111222,11111222,11111222' 
TCOON,ioos:station:TCOON:146:1,2019-12-01T18:30:00Z,28.1324,-97.0345,0.0,3.7,331.0,4.6,'11111222,11111222,11111222' 
TCOON,ioos:station:TCOON:146:1,2019-12-01T19:30:00Z,28.1324,-97.0345,0.0,3.7,323.0,4.8,'11111222,11111222,11111222' 
TCOON,ioos:station:TCOON:146:1,2019-12-01T20:30:00Z,28.1324,-97.0345,0.0,3.4,321.0,4.5,'11111222,11111222,11111222' 
TCOON,ioos:station:TCOON:146:1,2019-12-01T21:30:00Z,28.1324,-97.0345,0.0,3.4,334.0,4.4,'11111222,11111222,11111222' 
TCOON,ioos:station:TCOON:146:1,2019-12-01T22:30:00Z,28.1324,-97.0345,0.0,3.6,328.0,4.4,'11111222,11111222,11111222' 
TCOON,ioos:station:TCOON:146:1,2019-12-01T23:30:00Z,28.1324,-97.0345,0.0,2.9,334.0,3.5,'11111222,11111222,11111222' 
TCOON,ioos:station:TCOON:146:1,2019-12-02T00:30:00Z,28.1324,-97.0345,0.0,3.0,333.0,3.9,'11111222,11111222,11111222' 
TCOON,ioos:station:TCOON:146:1,2019-12-02T01:30:00Z,28.1324,-97.0345,0.0,3.0,334.0,3.6,'11111222,11111222,11111222' 
TCOON,ioos:station:TCOON:146:1,2019-12-02T02:30:00Z,28.1324,-97.0345,0.0,3.3,335.0,4.1,'11111222,11111222,11111222' 
TCOON,ioos:station:TCOON:146:1,2019-12-02T03:30:00Z,28.1324,-97.0345,0.0,3.4,345.0,4.0,'11111222,11111222,11111222' 
TCOON,ioos:station:TCOON:146:1,2019-12-02T04:30:00Z,28.1324,-97.0345,0.0,3.5,343.0,4.2,'11111222,11111222,11111222' 
TCOON,ioos:station:TCOON:146:1,2019-12-02T05:30:00Z,28.1324,-97.0345,0.0,2.8,338.0,3.4,'11111222,11111222,11111222' 
TCOON,ioos:station:TCOON:146:1,2019-12-02T06:30:00Z,28.1324,-97.0345,0.0,3.9,329.0,4.5,'11111222,11111222,11111222' 
TCOON,ioos:station:TCOON:146:1,2019-12-02T07:30:00Z,28.1324,-97.0345,0.0,4.1,322.0,4.8,'11111222,11111222,11111222' 
TCOON,ioos:station:TCOON:146:1,2019-12-02T08:30:00Z,28.1324,-97.0345,0.0,4.7,337.0,6.2,'11111222,11111222,11111222' 
TCOON,ioos:station:TCOON:146:1,2019-12-02T09:30:00Z,28.1324,-97.0345,0.0,5.2,336.0,6.1,'11111222,11111222,11111222' 
TCOON,ioos:station:TCOON:146:1,2019-12-02T10:30:00Z,28.1324,-97.0345,0.0,4.3,339.0,5.4,'11111222,11111222,11111222' 
TCOON,ioos:station:TCOON:146:1,2019-12-02T11:30:00Z,28.1324,-97.0345,0.0,4.3,338.0,5.4,'11111222,11111222,11111222' 
TCOON,ioos:station:TCOON:146:1,2019-12-02T12:30:00Z,28.1324,-97.0345,0.0,3.7,337.0,4.5,'11111222,11111222,11111222' 
TCOON,ioos:station:TCOON:146:1,2019-12-02T13:30:00Z,28.1324,-97.0345,0.0,4.2,335.0,5.4,'11111222,11111222,11111222' 
TCOON,ioos:station:TCOON:146:1,2019-12-02T14:30:00Z,28.1324,-97.0345,0.0,3.2,341.0,4.0,'11111222,11111222,11111222' 
TCOON,ioos:station:TCOON:146:1,2019-12-02T15:30:00Z,28.1324,-97.0345,0.0,1.9,353.0,2.6,'11111222,11111222,11111222' 
TCOON,ioos:station:TCOON:146:1,2019-12-02T16:30:00Z,28.1324,-97.0345,0.0,3.5,355.0,4.4,'11111222,11111222,11111222' 
TCOON,ioos:station:TCOON:146:1,2019-12-02T17:30:00Z,28.1324,-97.0345,0.0,2.6,346.0,4.1,'11111222,11111222,11111222' 
TCOON,ioos:station:TCOON:146:1,2019-12-02T18:30:00Z,28.1324,-97.0345,0.0,2.1,345.0,3.4,'11111222,11111222,11111222' 
TCOON,ioos:station:TCOON:146:1,2019-12-02T19:30:00Z,28.1324,-97.0345,0.0,1.5,343.0,2.4,'11111222,11111222,11111222' 
TCOON,ioos:station:TCOON:146:1,2019-12-02T20:30:00Z,28.1324,-97.0345,0.0,2.1,337.0,3.1,'11111222,11111222,11111222' 
TCOON,ioos:station:TCOON:146:1,2019-12-02T21:30:00Z,28.1324,-97.0345,0.0,1.3,342.0,2.2,'11111222,11111222,11111222' 
TCOON,ioos:station:TCOON:146:1,2019-12-02T22:30:00Z,28.1324,-97.0345,0.0,0.6,211.0,1.8,'11111222,11111222,11111222' 
TCOON,ioos:station:TCOON:146:1,2019-12-02T23:30:00Z,28.1324,-97.0345,0.0,0.8,165.0,1.0,'11111222,11111222,11111222' 
TCOON,ioos:station:TCOON:146:1,2019-12-03T00:30:00Z,28.1324,-97.0345,0.0,0.6,120.0,1.0,'11111222,11111222,11111222' 
TCOON,ioos:station:TCOON:146:1,2019-12-03T01:30:00Z,28.1324,-97.0345,0.0,1.1,45.0,1.5,'11111222,11111222,11111222' 
TCOON,ioos:station:TCOON:146:1,2019-12-03T02:30:00Z,28.1324,-97.0345,0.0,0.8,20.0,1.2,'11111222,11111222,11111222' 
TCOON,ioos:station:TCOON:146:1,2019-12-03T03:30:00Z,28.1324,-97.0345,0.0,0.4,121.0,0.7,'11111222,11111222,11111222' 
TCOON,ioos:station:TCOON:146:1,2019-12-03T04:30:00Z,28.1324,-97.0345,0.0,0.0,151.0,0.2,'11111222,11111222,11111222' 
TCOON,ioos:station:TCOON:146:1,2019-12-03T05:30:00Z,28.1324,-97.0345,0.0,0.8,13.0,1.5,'11111222,11111222,11111222' 
TCOON,ioos:station:TCOON:146:1,2019-12-03T06:30:00Z,28.1324,-97.0345,0.0,1.1,347.0,1.4,'11111222,11111222,11111222' 
TCOON,ioos:station:TCOON:146:1,2019-12-03T07:30:00Z,28.1324,-97.0345,0.0,0.9,323.0,1.2,'11111222,11111222,11111222' 
TCOON,ioos:station:TCOON:146:1,2019-12-03T08:30:00Z,28.1324,-97.0345,0.0,0.3,350.0,0.6,'11111222,11111222,11111222' 
TCOON,ioos:station:TCOON:146:1,2019-12-03T09:30:00Z,28.1324,-97.0345,0.0,0.9,12.0,1.2,'11111222,11111222,11111222' 
TCOON,ioos:station:TCOON:146:1,2019-12-03T10:30:00Z,28.1324,-97.0345,0.0,1.1,5.0,1.3,'11111222,11111222,11111222' 
TCOON,ioos:station:TCOON:146:1,2019-12-03T11:30:00Z,28.1324,-97.0345,0.0,0.9,21.0,1.5,'11111222,11111222,11111222' 
TCOON,ioos:station:TCOON:146:1,2019-12-03T12:30:00Z,28.1324,-97.0345,0.0,0.8,27.0,0.9,'11111222,11111222,11111222' 
TCOON,ioos:station:TCOON:146:1,2019-12-03T13:30:00Z,28.1324,-97.0345,0.0,1.0,22.0,1.2,'11111222,11111222,11111222' 
TCOON,ioos:station:TCOON:146:1,2019-12-03T14:30:00Z,28.1324,-97.0345,0.0,0.7,27.0,1.0,'11111222,11111222,11111222' 
TCOON,ioos:station:TCOON:146:1,2019-12-03T15:30:00Z,28.1324,-97.0345,0.0,0.0,0.0,0.0,'11111222,11111222,11111222' 
TCOON,ioos:station:TCOON:146:1,2019-12-03T16:30:00Z,28.1324,-97.0345,0.0,0.6,268.0,0.8,'11111222,11111222,11111222' 
TCOON,ioos:station:TCOON:146:1,2019-12-03T17:30:00Z,28.1324,-97.0345,0.0,0.3,360.0,0.8,'11111222,11144222,11111222' 
TCOON,ioos:station:TCOON:146:1,2019-12-03T18:30:00Z,28.1324,-97.0345,0.0,1.2,275.0,1.8,'11111222,11111222,11111222' 
TCOON,ioos:station:TCOON:146:1,2019-12-03T19:30:00Z,28.1324,-97.0345,0.0,0.2,278.0,0.9,'11111222,11111222,11111222' 
TCOON,ioos:station:TCOON:146:1,2019-12-03T20:30:00Z,28.1324,-97.0345,0.0,2.8,127.0,3.7,'11111222,11111222,11111222' 
TCOON,ioos:station:TCOON:146:1,2019-12-03T21:30:00Z,28.1324,-97.0345,0.0,3.2,130.0,3.9,'11111222,11111222,11111222' 
TCOON,ioos:station:TCOON:146:1,2019-12-03T22:30:00Z,28.1324,-97.0345,0.0,3.6,140.0,4.4,'11111222,11111222,11111222' 
TCOON,ioos:station:TCOON:146:1,2019-12-03T23:30:00Z,28.1324,-97.0345,0.0,3.1,148.0,3.9,'11111222,11111222,11111222' 
TCOON,ioos:station:TCOON:146:1,2019-12-04T00:30:00Z,28.1324,-97.0345,0.0,1.9,150.0,2.6,'11111222,11111222,11111222' 
TCOON,ioos:station:TCOON:146:1,2019-12-04T01:30:00Z,28.1324,-97.0345,0.0,1.7,140.0,2.1,'11111222,11111222,11111222' 
TCOON,ioos:station:TCOON:146:1,2019-12-04T02:30:00Z,28.1324,-97.0345,0.0,1.6,140.0,1.8,'11111222,11111222,11111222' 
TCOON,ioos:station:TCOON:146:1,2019-12-04T03:30:00Z,28.1324,-97.0345,0.0,0.8,130.0,1.0,'11111222,11111222,11111222' 
TCOON,ioos:station:TCOON:146:1,2019-12-04T04:30:00Z,28.1324,-97.0345,0.0,1.4,139.0,1.8,'11111222,11111222,11111222' 
TCOON,ioos:station:TCOON:146:1,2019-12-04T05:30:00Z,28.1324,-97.0345,0.0,2.0,153.0,2.4,'11111222,11111222,11111222' 
TCOON,ioos:station:TCOON:146:1,2019-12-04T06:30:00Z,28.1324,-97.0345,0.0,1.9,170.0,2.3,'11111222,11111222,11111222' 
TCOON,ioos:station:TCOON:146:1,2019-12-04T07:30:00Z,28.1324,-97.0345,0.0,1.2,200.0,1.8,'11111222,11111222,11111222' 
TCOON,ioos:station:TCOON:146:1,2019-12-04T08:30:00Z,28.1324,-97.0345,0.0,1.0,248.0,1.4,'11111222,11111222,11111222' 
TCOON,ioos:station:TCOON:146:1,2019-12-04T09:30:00Z,28.1324,-97.0345,0.0,2.0,297.0,2.3,'11111222,11111222,11111222' 
TCOON,ioos:station:TCOON:146:1,2019-12-04T10:30:00Z,28.1324,-97.0345,0.0,1.8,272.0,2.4,'11111222,11111222,11111222' 
TCOON,ioos:station:TCOON:146:1,2019-12-04T11:30:00Z,28.1324,-97.0345,0.0,2.2,304.0,2.7,'11111222,11111222,11111222' 
TCOON,ioos:station:TCOON:146:1,2019-12-04T12:30:00Z,28.1324,-97.0345,0.0,1.2,317.0,1.6,'11111222,11111222,11111222' 
TCOON,ioos:station:TCOON:146:1,2019-12-04T13:30:00Z,28.1324,-97.0345,0.0,2.6,311.0,3.3,'11111222,11111222,11111222' 
TCOON,ioos:station:TCOON:146:1,2019-12-04T14:30:00Z,28.1324,-97.0345,0.0,3.1,328.0,3.6,'11111222,11111222,11111222' 
TCOON,ioos:station:TCOON:146:1,2019-12-04T15:30:00Z,28.1324,-97.0345,0.0,2.0,341.0,2.5,'11111222,11111222,11111222' 
TCOON,ioos:station:TCOON:146:1,2019-12-04T16:30:00Z,28.1324,-97.0345,0.0,1.4,322.0,1.8,'11111222,11111222,11111222' 
TCOON,ioos:station:TCOON:146:1,2019-12-04T17:30:00Z,28.1324,-97.0345,0.0,0.1,174.0,0.5,'11111222,11111222,11111222' 
TCOON,ioos:station:TCOON:146:1,2019-12-04T18:30:00Z,28.1324,-97.0345,0.0,0.8,110.0,1.0,'11111222,11111222,11111222' 
TCOON,ioos:station:TCOON:146:1,2019-12-04T20:00:00Z,28.1324,-97.0345,0.0,1.3,111.0,1.6,'11111222,11111222,11111222' 
TCOON,ioos:station:TCOON:146:1,2019-12-04T20:30:00Z,28.1324,-97.0345,0.0,1.7,115.0,1.9,'11111222,11111222,11111222' 
 
DISCLAIMER: The Gulf of Mexico Coastal and Ocean Observing (GCOOS) Data Portal aggregates data from the regional data providers for the convenience of all data users. Data published on this website should not be used for navigation or certain other uses as we cannot guarantee data accuracy or availability. The data and delivery services are provided 'as is' without warranty of any kind. Data Source: Gulf of Mexico Coastal Ocean Observing System Data Portal (http://data.gcoos.org/) 
